This is the latest recevied weather packets stored in our database for station/object M0XDC-10. If no packets are shown the sender has not sent any weather packets the latest 10 day(s).
| Time | Temp. | Humidity | Pressure | Rain* | Wind** | Luminosity | Snow |
|---|---|---|---|---|---|---|---|
| 1777495472 | 23.89° C | 29% | 1024.7 hPa | - | - | - | - |
| 1777494943 | 23.89° C | 30% | 1024.4 hPa | - | - | - | - |
| 1777494571 | 23.89° C | 30% | 1024.4 hPa | - | - | - | - |
| 1777493671 | 24.44° C | 30% | 1024.4 hPa | - | - | - | - |
| 1777492804 | 24.44° C | 29% | 1024.5 hPa | - | - | - | - |
| 1777492770 | 24.44° C | 29% | 1024.5 hPa | - | - | - | - |
| 1777491869 | 24.44° C | 30% | 1024.3 hPa | - | - | - | - |
| 1777490968 | 24.44° C | 29% | 1024.2 hPa | - | - | - | - |
| 1777490068 | 24.44° C | 29% | 1024.2 hPa | - | - | - | - |
| 1777489168 | 25° C | 29% | 1023.9 hPa | - | - | - | - |
| 1777488268 | 25° C | 29% | 1023.9 hPa | - | - | - | - |
| 1777487398 | 25° C | 29% | 1023.8 hPa | - | - | - | - |
| 1777487367 | 25° C | 29% | 1023.8 hPa | - | - | - | - |
| 1777486466 | 25° C | 29% | 1023.9 hPa | - | - | - | - |
| 1777485566 | 25° C | 29% | 1024 hPa | - | - | - | - |
| 1777484703 | 25° C | 29% | 1024 hPa | - | - | - | - |
| 1777484665 | 25° C | 29% | 1024 hPa | - | - | - | - |
| 1777483770 | 24.44° C | 30% | 1024.2 hPa | - | - | - | - |
| 1777482869 | 24.44° C | 30% | 1024.3 hPa | - | - | - | - |
| 1777481969 | 24.44° C | 30% | 1024.5 hPa | - | - | - | - |
| 1777481069 | 23.89° C | 30% | 1024.5 hPa | - | - | - | - |
| 1777480169 | 23.89° C | 30% | 1024.5 hPa | - | - | - | - |
| 1777479269 | 23.89° C | 31% | 1024.6 hPa | - | - | - | - |
| 1777478369 | 23.33° C | 31% | 1024.5 hPa | - | - | - | - |
| 1777477469 | 23.33° C | 31% | 1024.7 hPa | - | - | - | - |
* Rain since midnight (hover to see other rain measurements)
** Current wind speed in m/s (hover to see current wind gust speed)